[[{"header":{"parameterUnit":"m.s-1","parameterCategory":1,"la1":30.2991,"la2":30.254,"lo1":-89.0895,"lo2":-89.0444,"dy":0.0017,"dx":0.0017,"nx":28,"ny":28,"refTime":"2025-07-20T09:00:00:Z","depth":0,"parameterNumber":2,"parameterNumberName":"U-component_of_WINDS"},"data":[0,0,0,0,0,0,0,0,0,0,0,0,0,0,0,0,0,0,0,0,0,0,0,0,0,0,0,0,0,0,0,0,0,0,0,0,0,0,0,0,0,0,0,0,0,0,0,0,0,0,0,0,0,0,0,0,0,0,2.7733,2.7734,0,2.7815,2.7816,2.7817,2.785,2.785,2.785,2.785,2.7934,2.7936,2.7938,0,0,0,0,0,0,0,0,0,0,0,0,0,2.7609,2.7611,2.7733,2.7734,2.7735,2.7815,2.7816,2.7817,2.785,2.785,2.785,2.785,2.7933,2.7936,2.7939,0,0,0,0,0,0,0,0,0,0,0,0,0,2.7674,2.7611,2.7733,2.7761,2.7765,2.7815,2.7816,2.7817,2.785,2.785,2.785,2.785,2.7932,2.7936,2.7939,2.7967,0,0,2.795,2.7952,0,0,0,0,0,0,0,0,2.767,2.7678,2.7756,2.776,2.7763,2.7822,2.7803,2.7867,2.7851,2.7818,2.785,2.785,2.7897,2.7903,2.7919,2.797,2.7974,2.795,2.7953,2.7954,2.7955,0,0,0,0,0,0,0,2.7665,2.7675,2.7766,2.7757,2.7762,2.7771,2.778,2.7815,2.7858,2.7821,2.7823,2.7833,2.7899,2.7916,2.7921,2.7975,2.795,2.7953,2.7956,2.7957,2.8056,2.8057,0,0,0,0,0,0,2.7656,2.7671,2.7763,2.7768,2.7715,2.7773,2.7783,2.7804,2.7858,2.7866,2.7833,2.7834,2.791,2.7917,2.7925,2.7962,2.7954,2.7957,2.796,2.8056,2.8056,2.8057,0,0,0,0,0,0,2.7653,2.7664,2.776,2.772,2.7733,2.7776,2.7798,2.7805,2.7822,2.7867,2.7875,2.7842,2.791,2.7919,2.7957,2.7965,2.7959,2.7962,2.8055,2.8056,2.8057,2.8035,0,0,0,0,0,0,2.7649,2.7663,2.7673,2.772,2.7735,2.7789,2.7799,2.7807,2.7828,2.7831,2.7877,2.7885,2.791,2.7951,2.796,2.797,2.7965,2.8055,2.8056,2.8056,2.8035,2.8035,2.8035,0,0,0,0,0,2.7645,2.7663,2.7673,2.7684,2.7748,2.779,2.7798,2.7827,2.7829,2.784,2.7869,2.7883,2.7963,2.7954,2.7965,2.7976,2.8054,2.8055,2.8056,2.8036,2.8035,2.8035,0,0,0,0,0,0,2.7614,2.7669,2.7681,2.7715,2.7748,2.7795,2.781,2.7825,2.7858,2.7859,2.7893,2.7904,2.7938,2.7961,2.7951,2.8007,2.801,2.8013,2.799,2.7991,2.799,2.7984,2.7968,0,0,0,0,0,2.7612,2.764,2.7687,2.7712,2.7728,2.7766,2.7785,2.7805,2.784,2.7854,2.7885,2.7919,2.7952,2.7973,2.8005,2.804,2.8051,2.8053,2.8052,2.8052,2.8054,2.8076,2.8078,2.806,2.806,2.806,0,0,2.7606,2.764,2.7656,2.7707,2.7735,2.7764,2.7777,2.7807,2.783,2.7858,2.7895,2.792,2.796,2.7997,2.8014,2.8017,2.8062,2.8053,2.8053,2.8055,2.8078,2.8079,2.8081,2.8061,2.8061,2.8061,0,0,2.7611,2.7639,2.7664,2.7692,2.7734,2.776,2.7766,2.7812,2.783,2.7868,2.789,2.7918,2.7973,2.8002,2.8023,2.8043,2.8058,2.8053,2.8051,2.8072,2.8074,2.8075,2.8083,2.8086,2.8055,2.8055,2.8055,0,2.7599,2.7644,2.7675,2.7705,2.7728,2.7756,2.7783,2.7808,2.7858,2.7874,2.7876,2.7948,2.7977,2.8021,2.8026,2.8043,2.8052,2.8047,2.8071,2.8073,2.8075,2.8083,2.8085,2.8054,2.8054,2.8054,2.8054,0,2.7628,2.7659,2.7674,2.7723,2.7748,2.7776,2.7812,2.7834,2.7852,2.7878,2.7918,2.7954,2.7995,2.8008,2.8025,2.8055,2.8056,2.8064,2.8068,2.8075,2.8083,2.8086,2.8053,2.8053,2.8053,2.8054,0,0,2.7613,2.7681,2.7686,2.771,2.776,2.7785,2.7815,2.7856,2.7874,2.7909,2.7936,2.7984,2.7993,2.8017,2.8039,2.8058,2.8073,2.8064,2.8066,2.8065,2.811,2.8103,2.8106,2.8084,2.8084,2.8085,2.8107,0,2.7626,2.768,2.7711,2.7754,2.7784,2.7812,2.7839,2.7873,2.7899,2.7929,2.7958,2.7992,2.8,2.8016,2.8036,2.8066,2.8082,2.8065,2.811,2.8111,2.8098,2.811,2.8102,2.8121,2.811,2.811,2.8111,0,2.7646,2.7681,2.7727,2.7776,2.779,2.7813,2.7854,2.7882,2.7923,2.794,2.7969,2.7991,2.8026,2.8028,2.8077,2.8065,2.8086,2.8104,2.8105,2.811,2.8111,2.8115,2.8127,2.813,2.8116,2.8116,2.8115,0,2.7632,2.7691,2.7727,2.7746,2.7803,2.7819,2.7844,2.7884,2.7908,2.7944,2.796,2.8,2.8022,2.8053,2.8086,2.8084,2.8133,2.8137,2.8149,2.8148,2.8157,2.8156,2.8172,2.817,2.817,2.817,2.817,0,2.7642,2.7669,2.7721,2.7743,2.7775,2.7811,2.7842,2.7869,2.7905,2.7933,2.7961,2.7987,2.8029,2.8062,2.8088,2.8125,2.8135,2.8151,2.8158,2.8148,2.8146,2.8162,2.8161,2.8171,2.8171,2.8171,2.817,0,2.7631,2.7667,2.7708,2.776,2.7774,2.7795,2.784,2.7863,2.7891,2.7927,2.7938,2.7983,2.8022,2.8059,2.8111,2.8129,2.8167,2.8175,2.8153,2.8157,2.8167,2.8166,2.8194,2.82,2.8193,2.8193,2.8193,0,2.7635,2.7657,2.7712,2.7733,2.7757,2.7791,2.7816,2.7853,2.7878,2.7927,2.7944,2.7986,2.8021,2.8083,2.8121,2.8162,2.8172,2.8179,2.8178,2.8169,2.8172,2.8171,2.8174,2.8178,2.8178,2.8178,2.8178,0,2.7638,2.7656,2.769,2.7732,2.7761,2.7795,2.783,2.7846,2.7891,2.7917,2.7958,2.7986,2.804,2.8082,2.8127,2.8154,2.8174,2.8178,2.8183,2.8174,2.816,2.8168,2.8152,2.8177,2.8177,2.8177,2.8177,2.8177,2.7635,2.7657,2.7699,2.7737,2.7768,2.7801,2.7826,2.7859,2.7893,2.7941,2.7961,2.8003,2.8046,2.8109,2.8136,2.817,2.8174,2.8181,2.8183,2.8184,2.8183,2.8155,2.8178,2.8179,2.8179,2.8179,2.8179,0,2.764,2.767,2.7705,2.7754,2.7785,2.7801,2.7842,2.7867,2.7903,2.7941,2.7976,2.8024,2.8066,2.8107,2.8151,2.8171,2.8181,2.8181,2.818,2.8186,2.8176,2.8168,2.8172,2.8172,2.8172,2.8172,2.8172,2.8172,2.7647,2.7684,2.7707,2.7761,2.7791,2.7832,2.7855,2.7886,2.7917,2.7969,2.8004,2.8031,2.8072,2.8119,2.8158,2.817,2.8185,2.8182,2.8196,2.8186,2.8186,2.8186,2.8179,2.8185,2.8185,2.8203,2.8203,2.8203]},{"header":{"parameterUnit":"m.s-1","parameterCategory":1,"la1":30.2991,"la2":30.254,"lo1":-89.0895,"lo2":-89.0444,"dy":0.0017,"dx":0.0017,"nx":28,"ny":28,"refTime":"2025-07-20T09:00:00:Z","depth":0,"parameterNumber":3,"parameterNumberName":"V-component_of_WINDS"},"data":[0,0,0,0,0,0,0,0,0,0,0,0,0,0,0,0,0,0,0,0,0,0,0,0,0,0,0,0,0,0,0,0,0,0,0,0,0,0,0,0,0,0,0,0,0,0,0,0,0,0,0,0,0,0,0,0,0,0,-0.9777,-0.9777,0,-0.9787,-0.9787,-0.9787,-0.9788,-0.9788,-0.9788,-0.9788,-0.9798,-0.9798,-0.9799,0,0,0,0,0,0,0,0,0,0,0,0,0,-0.9763,-0.9763,-0.9777,-0.9777,-0.9777,-0.9787,-0.9787,-0.9787,-0.9788,-0.9788,-0.9788,-0.9787,-0.9798,-0.9798,-0.9799,0,0,0,0,0,0,0,0,0,0,0,0,0,-0.977,-0.9763,-0.9777,-0.9779,-0.9779,-0.9786,-0.9787,-0.9787,-0.9788,-0.9788,-0.9788,-0.9787,-0.9798,-0.9798,-0.9799,-0.9805,0,0,-0.9801,-0.9801,0,0,0,0,0,0,0,0,-0.977,-0.9771,-0.9779,-0.9779,-0.9779,-0.9786,-0.9785,-0.9793,-0.9788,-0.9785,-0.9788,-0.9787,-0.9794,-0.9795,-0.9797,-0.9806,-0.9806,-0.9801,-0.9801,-0.9801,-0.9801,0,0,0,0,0,0,0,-0.9769,-0.977,-0.9781,-0.9779,-0.9779,-0.978,-0.9781,-0.9787,-0.979,-0.9785,-0.9785,-0.9786,-0.9794,-0.9797,-0.9797,-0.9806,-0.9801,-0.9801,-0.9801,-0.9802,-0.9823,-0.9823,0,0,0,0,0,0,-0.9768,-0.977,-0.9781,-0.9781,-0.9774,-0.9781,-0.9782,-0.9784,-0.979,-0.9791,-0.9786,-0.9786,-0.9796,-0.9797,-0.9798,-0.9807,-0.9801,-0.9802,-0.9802,-0.9823,-0.9823,-0.9823,0,0,0,0,0,0,-0.9768,-0.9769,-0.978,-0.9776,-0.9777,-0.9781,-0.9784,-0.9784,-0.9786,-0.9791,-0.9792,-0.9788,-0.9796,-0.9797,-0.9804,-0.9807,-0.9802,-0.9802,-0.9822,-0.9823,-0.9823,-0.9824,0,0,0,0,0,0,-0.9768,-0.9769,-0.9771,-0.9776,-0.9777,-0.9785,-0.9784,-0.9784,-0.9787,-0.9787,-0.9793,-0.9793,-0.9796,-0.9803,-0.9804,-0.9808,-0.9803,-0.9822,-0.9822,-0.9823,-0.9824,-0.9824,-0.9825,0,0,0,0,0,-0.9767,-0.977,-0.9771,-0.9772,-0.9779,-0.9785,-0.9786,-0.9789,-0.9787,-0.979,-0.9793,-0.9793,-0.9807,-0.9804,-0.9805,-0.9809,-0.9822,-0.9822,-0.9823,-0.9823,-0.9824,-0.9825,0,0,0,0,0,0,-0.9766,-0.9771,-0.9771,-0.9776,-0.9781,-0.9786,-0.9788,-0.9789,-0.9794,-0.9794,-0.9796,-0.9798,-0.9805,-0.9808,-0.9804,-0.9816,-0.9814,-0.9815,-0.9814,-0.9815,-0.9816,-0.9815,-0.9803,0,0,0,0,0,-0.9766,-0.977,-0.9774,-0.9779,-0.9781,-0.9784,-0.9787,-0.9788,-0.9793,-0.9795,-0.9798,-0.9803,-0.9809,-0.9812,-0.9817,-0.9824,-0.9826,-0.9828,-0.9829,-0.9829,-0.983,-0.9836,-0.9837,-0.9825,-0.9825,-0.9825,0,0,-0.9766,-0.977,-0.9772,-0.9778,-0.9782,-0.9787,-0.9786,-0.979,-0.9794,-0.9795,-0.9802,-0.9805,-0.9811,-0.9819,-0.9822,-0.9821,-0.9834,-0.983,-0.983,-0.9831,-0.9836,-0.9838,-0.9839,-0.9825,-0.9825,-0.9825,0,0,-0.977,-0.9772,-0.9777,-0.9781,-0.9786,-0.9789,-0.979,-0.9795,-0.9797,-0.9804,-0.9806,-0.9811,-0.982,-0.9824,-0.9828,-0.9836,-0.9836,-0.9837,-0.984,-0.9846,-0.9847,-0.9848,-0.9852,-0.9853,-0.9838,-0.9838,-0.9838,0,-0.977,-0.9777,-0.9779,-0.9784,-0.9788,-0.9789,-0.9795,-0.9798,-0.9805,-0.9808,-0.9807,-0.9819,-0.9823,-0.9832,-0.9835,-0.9837,-0.9839,-0.9836,-0.9847,-0.9848,-0.9848,-0.9852,-0.9854,-0.9838,-0.9838,-0.9838,-0.9838,0,-0.9777,-0.9782,-0.9785,-0.9792,-0.9796,-0.9801,-0.9805,-0.9809,-0.9811,-0.9814,-0.9822,-0.9827,-0.9834,-0.9837,-0.9838,-0.9847,-0.9846,-0.9846,-0.9844,-0.985,-0.9853,-0.9855,-0.9838,-0.9838,-0.9838,-0.9838,0,0,-0.9778,-0.9788,-0.9789,-0.9793,-0.98,-0.9804,-0.981,-0.9817,-0.9821,-0.9826,-0.9832,-0.9841,-0.9841,-0.9845,-0.9848,-0.9852,-0.986,-0.9852,-0.9852,-0.9854,-0.9872,-0.9872,-0.9874,-0.9861,-0.9861,-0.9861,-0.9872,0,-0.9783,-0.9794,-0.9797,-0.9806,-0.9811,-0.9814,-0.982,-0.9826,-0.9829,-0.9835,-0.984,-0.9846,-0.9845,-0.9848,-0.9853,-0.9858,-0.9864,-0.9857,-0.9868,-0.9868,-0.9866,-0.9876,-0.9876,-0.9885,-0.9873,-0.9873,-0.9874,0,-0.979,-0.9796,-0.9805,-0.9813,-0.9816,-0.9821,-0.9828,-0.9834,-0.9841,-0.9843,-0.9849,-0.9851,-0.9859,-0.9857,-0.9869,-0.9864,-0.9869,-0.9872,-0.9873,-0.9874,-0.9871,-0.9878,-0.9888,-0.989,-0.9876,-0.9875,-0.9875,0,-0.9791,-0.9801,-0.9809,-0.9812,-0.9821,-0.9825,-0.9829,-0.9836,-0.9841,-0.9848,-0.9851,-0.9859,-0.9864,-0.987,-0.9875,-0.9873,-0.9887,-0.9885,-0.9891,-0.9891,-0.9893,-0.9893,-0.9905,-0.9896,-0.9896,-0.9896,-0.9896,0,-0.9796,-0.9802,-0.981,-0.9814,-0.9822,-0.9827,-0.9834,-0.9839,-0.9845,-0.9852,-0.9855,-0.9861,-0.9867,-0.9875,-0.9879,-0.9889,-0.9891,-0.9894,-0.9895,-0.9894,-0.9893,-0.9897,-0.9896,-0.9896,-0.9896,-0.9896,-0.9896,0,-0.9798,-0.9804,-0.9812,-0.9821,-0.9823,-0.9829,-0.9836,-0.9842,-0.9847,-0.9855,-0.9857,-0.9865,-0.9874,-0.988,-0.9891,-0.9894,-0.9905,-0.9906,-0.9903,-0.9904,-0.9909,-0.9909,-0.9924,-0.9927,-0.9915,-0.9915,-0.9915,0,-0.9801,-0.9806,-0.9816,-0.982,-0.9825,-0.9832,-0.9837,-0.9842,-0.9848,-0.9858,-0.9862,-0.9872,-0.9879,-0.9894,-0.9901,-0.9911,-0.9912,-0.9917,-0.9913,-0.9912,-0.9913,-0.9913,-0.9914,-0.9917,-0.9917,-0.9917,-0.9917,0,-0.9806,-0.9809,-0.9816,-0.9825,-0.9831,-0.9838,-0.9845,-0.9848,-0.9856,-0.9862,-0.9871,-0.9877,-0.989,-0.99,-0.991,-0.9916,-0.9918,-0.9919,-0.9921,-0.9919,-0.9918,-0.992,-0.9905,-0.9918,-0.9918,-0.9918,-0.9918,-0.9918,-0.9809,-0.9815,-0.9823,-0.9831,-0.9837,-0.9844,-0.985,-0.9856,-0.9864,-0.9874,-0.9878,-0.9888,-0.9897,-0.9911,-0.9917,-0.9926,-0.9926,-0.9928,-0.9929,-0.993,-0.993,-0.9916,-0.9928,-0.9928,-0.9928,-0.9928,-0.9928,0,-0.9815,-0.9821,-0.9829,-0.9839,-0.9846,-0.9848,-0.9856,-0.9862,-0.9871,-0.9879,-0.9888,-0.99,-0.991,-0.9918,-0.9929,-0.9935,-0.9936,-0.9938,-0.9937,-0.9939,-0.993,-0.9927,-0.9936,-0.9936,-0.9936,-0.9936,-0.9936,-0.9936,-0.9819,-0.9828,-0.9833,-0.9846,-0.9852,-0.9862,-0.9867,-0.9874,-0.988,-0.9894,-0.9902,-0.9908,-0.9917,-0.9929,-0.9939,-0.9941,-0.9945,-0.9946,-0.9949,-0.994,-0.9939,-0.9938,-0.9936,-0.9947,-0.9947,-0.9958,-0.9958,-0.9958]}]]